Weather History for Palm Springs, CA

Change the Weather History Date:

Monday, November 19, 2012

  Actual Average Record
Temperature  
Mean Temperature 65 °F 63 °F  
Max Temperature 78 °F 75 °F 90 °F (1936)
Min Temperature 52 °F 51 °F 32 °F (1941)
Degree Days  
Heating Degree Days 0 3  
Month to date heating degree days 34 34  
Since 1 July heating degree days 34 38  
Cooling Degree Days 0 1  
Month to date cooling degree days 88 67  
Year to date cooling degree days 4677 4129  
Growing Degree Days 15 (Base 50)    
Moisture  
Dew Point 42 °F    
Average Humidity 51    
Maximum Humidity 77    
Minimum Humidity 24    
Precipitation  
Precipitation 0.00 in 0.02 in 0.52 in (1967)
Month to date precipitation T 0.27  
Year to date precipitation 1.82 4.60  
Since 1 July precipitation 1.03 1.66  
Snow  
Snow 0.00 in - - ()
Month to date snowfall 0.0  
Year to date snowfall 0.0  
Since 1 July snowfall 0.0  
Snow Depth 0.00 in    
Sea Level Pressure  
Sea Level Pressure 30.14 in    
Wind  
Wind Speed 1 mph (NE)    
Max Wind Speed 8 mph    
Max Gust Speed 12 mph    
Visibility 10 miles    
Events      
T = Trace of Precipitation, MM = Missing Value Source: NWS Daily Summary

Daily Weather History Graph

Daily Weather History Graph

Search for Another Location

Airport:

Trip Planner

Search our weather history database for the weather conditions in past years. The results will help you decide how hot, cold, wet, or windy it might be!

Date:

Astronomy

Nov. 19, 2012 Rise Set
Actual Time 6:22 AM PST 4:40 PM PST
Civil Twilight 5:55 AM PST 5:07 PM PST
Nautical Twilight 5:25 AM PST 5:37 PM PST
Astronomical Twilight 4:55 AM PST 6:07 PM PST
Moon 11:34 AM PST 11:04 PM PST
Length of Visible Light 11h 11m
Length of Day
10h 17m
Waxing Crescent, 42% of the Moon is Illuminated
Nov 19
Waxing Crescent
Nov 20
First Quarter
Nov 28
Full
Dec 6
Last Quarter
Dec 13
New

Hourly Weather History & Observations

Time (PST) Temp. Dew Point Humidity Pressure Visibility Wind Dir Wind Speed Gust Speed Precip Events Conditions
12:53 AM 57.0 °F 44.1 °F 62% 30.11 in 10.0 mi Calm Calm - N/A   Clear
1:53 AM 55.9 °F 45.0 °F 67% 30.11 in 10.0 mi Calm Calm - N/A   Clear
2:53 AM 52.0 °F 44.1 °F 74% 30.11 in 10.0 mi Calm Calm - N/A   Clear
3:53 AM 54.0 °F 43.0 °F 66% 30.10 in 10.0 mi Calm Calm - N/A   Clear
4:53 AM 55.0 °F 42.1 °F 62% 30.12 in 10.0 mi Calm Calm - N/A   Clear
5:53 AM 55.0 °F 41.0 °F 59% 30.14 in 10.0 mi Calm Calm - N/A   Clear
6:53 AM 55.9 °F 43.0 °F 62% 30.16 in 10.0 mi North 4.6 mph - N/A   Clear
7:53 AM 60.1 °F 46.0 °F 60% 30.19 in 10.0 mi Calm Calm - N/A   Clear
8:53 AM 66.9 °F 42.1 °F 40% 30.19 in 10.0 mi Calm Calm - N/A   Clear
9:53 AM 69.1 °F 41.0 °F 36% 30.20 in 10.0 mi Calm Calm - N/A   Clear
10:53 AM 73.9 °F 41.0 °F 30% 30.17 in 10.0 mi Calm Calm - N/A   Clear
11:53 AM 75.0 °F 42.1 °F 31% 30.14 in 10.0 mi South 3.5 mph - N/A   Clear
12:53 PM 77.0 °F 39.9 °F 26% 30.13 in 10.0 mi Calm Calm - N/A   Clear
1:53 PM 78.1 °F 39.0 °F 25% 30.11 in 10.0 mi East 5.8 mph - N/A   Clear
2:53 PM 77.0 °F 37.9 °F 24% 30.11 in 10.0 mi ESE 4.6 mph - N/A   Clear
3:53 PM 75.9 °F 39.9 °F 27% 30.11 in 10.0 mi SE 4.6 mph - N/A   Clear
4:53 PM 73.0 °F 43.0 °F 34% 30.12 in 10.0 mi SE 5.8 mph - N/A   Clear
5:53 PM 69.1 °F 45.0 °F 42% 30.13 in 10.0 mi East 4.6 mph - N/A   Clear
7:53 PM 64.9 °F 45.0 °F 48% 30.16 in 10.0 mi Calm Calm - N/A   Clear
8:53 PM 61.0 °F 39.9 °F 46% 30.17 in 10.0 mi North 4.6 mph - N/A   Clear
9:53 PM 62.1 °F 44.1 °F 52% 30.16 in 10.0 mi NNW 6.9 mph - N/A   Clear
10:53 PM 61.0 °F 44.1 °F 54% 30.15 in 10.0 mi NW 8.1 mph - N/A   Clear
11:53 PM 61.0 °F 43.0 °F 52% 30.14 in 10.0 mi NNW 8.1 mph - N/A   Clear